sat.trackr.live / text

‹ back to catalog

TEVEL2-6

NORAD 63215 · 2025-052F

PAYLOAD ACTIVE UNKNOWN

§ Identity

Operator
Country
ISRA
Launch date
2025-03-15
Launch site
AFWTR
Launch vehicle
Mass (kg)
RCS (m²)

Purposes: comms

External: N2YO · Heavens-Above · Gunter

§ Orbital elements

Epoch: 2026-09-18T12:13:20.396640Z

Period
93.66 min
Inclination
97.3757°
Eccentricity
0.0004217
Mean motion
15.37399635 rev/d
Perigee alt
450.9 km
Apogee alt
456.7 km
Semi-major
6,831.9 km
B*
4.0221e-4
RAAN
158.0953°
Arg perigee
114.8567°
Mean anomaly
245.3116°
Rev number
8,443

§ Raw data

TEVEL2-61 63215U 25052F   26261.50926385  .00014679  00000+0  40221-3 0  99942 63215  97.3757 158.0953 0004217 114.8567 245.3116 15.37399635 84436

JSON: /api/v1/satellites/63215 · /tle

For live sub-satellite position, see the globe view (requires WebGL).

§ Visibility from observer

Set your observer location to see the next 7 days of passes ≥ 10°. The values pass through the URL so the page stays shareable.

No JS? Fill the form by hand. The geolocation button needs JavaScript.

§ Radio — SatNOGS DB

ModeDescriptionDownlinkUplink
BPSK Mode U - BPSK9k6 G3RUH - Beacon 436.400 MHz
FM Mode V/U - FM Transponder 436.400 MHz 145.970 MHz

2 transmitters · refreshed weekly from db.satnogs.org